CAPE
0 0 0 0 0 0 0 0 0 0 0 0 0 0 0 0 0 0 0 0 0 0 1 0 0 0 8 11 1 0 0 11 92 88 27 0 0 0 0 0 0 0 0 0
0 0 0 0 0 0 0 0 0 0 0 0 0 0 0 5 0 0 3 13 25 1 0 0 3 0 0 0 1 0 0 0 17 87 30 0 7 0 0 0 0 0 0 0
0 0 0 0 0 0 0 0 0 0 0 0 2 4 0 0 0 4 6 11 0 0 0 0 0 0 0 0 0 0 0 0 0 74 28 1 5 6 0 0 0 0 0 0
0 0 0 0 0 0 0 0 0 0 1 4 2 0 2 1 25 41 12 0 0 0 0 0 0 0 0 0 0 1 0 0 0 46 3 3 0 1 1 0 0 0 0 0
0 0 0 0 0 0 0 0 0 10 7 0 8 13 0 1 61 34 27 0 1 0 0 0 0 0 0 0 0 0 0 0 19 0 0 1 0 2 9 0 0 0 0 0
0 3 0 0 0 0 0 0 0 0 0 0 20 6 0 0 0 2 46 10 0 0 0 0 0 0 0 0 0 0 1 24 4 0 0 0 0 0 10 2 0 0 0 0
0 0 1 0 0 0 0 0 0 0 3 5 18 17 16 21 20 43 21 0 0 0 0 0 0 0 0 0 1 0 1 10 0 0 0 0 0 0 10 4 0 0 0 0
0 1 0 0 0 0 0 0 3 11 2 13 10 5 0 7 15 4 0 0 0 0 0 0 0 0 0 0 0 0 4 17 8 0 0 0 0 0 20 2 9 0 0 0
0 0 0 0 0 0 0 19 3 9 4 8 8 0 9 13 13 8 0 0 0 2 0 0 2 4 1 0 0 1 0 2 5 0 0 0 0 0 0 22 20 1 0 0
0 0 0 0 0 2 1 2 0 0 6 23 14 11 5 21 16 27 19 20 15 13 7 4 11 5 9 0 1 0 0 1 7 3 0 0 0 0 0 15 24 5 0 0
0 0 0 0 0 0 0 2 1 7 24 12 13 6 15 14 15 13 14 11 10 15 9 4 1 4 3 2 0 2 0 0 0 0 0 5 0 0 1 8 11 2 0 0
0 0 0 0 0 0 0 0 0 4 7 1 3 0 2 3 3 0 1 0 4 0 3 0 0 3 1 1 0 6 3 4 0 1 0 5 0 4 32 12 15 14 0 0
0 0 0 0 0 0 0 12 0 0 0 0 0 0 0 0 0 21 17 5 2 6 8 9 4 1 0 1 16 3 24 3 4 0 10 4 5 12 11 3 12 5 0 0
0 0 0 0 0 0 0 0 0 0 0 1 1 1 2 11 16 20 22 26 30 30 32 11 10 5 7 12 6 0 18 18 13 12 10 9 9 3 6 2 1 0 2 0
0 0 0 0 0 0 0 0 0 0 4 5 6 7 2 9 14 15 12 16 16 16 18 10 6 6 7 10 8 5 6 13 7 10 8 13 7 4 0 0 0 0 0 0
0 0 0 0 0 0 1 1 0 7 6 12 9 0 14 16 16 11 11 12 20 21 26 20 14 7 10 6 3 13 13 9 6 6 16 1 2 1 1 0 0 0 0 0
0 0 0 0 0 8 6 4 3 3 7 5 9 13 12 9 6 4 3 5 10 17 11 17 12 3 2 2 9 10 9 12 10 6 11 11 11 7 3 0 0 1 1 1
0 0 0 1 0 6 2 2 2 2 7 9 8 12 7 3 1 3 5 6 7 6 5 6 4 2 3 2 4 17 9 12 11 6 7 9 5 3 3 2 3 4 4 7
0 0 0 0 1 0 0 0 0 9 0 0 6 7 5 3 5 4 10 6 2 5 2 7 15 9 9 17 15 10 8 8 9 7 8 6 1 0 0 1 0 0 0 0
0 0 0 0 0 0 0 0 0 0 0 1 8 5 2 1 2 3 4 6 10 13 10 11 12 12 13 21 15 12 12 10 8 7 8 7 5 5 5 2 0 0 0 0
0 0 1 0 1 0 0 0 0 0 0 1 5 3 2 3 3 4 3 2 13 14 14 16 12 10 11 9 9 11 10 9 10 7 7 3 1 0 0 0 0 0 0 0
0 0 0 0 0 0 0 0 0 1 0 0 2 6 6 3 2 3 8 8 11 21 11 11 12 23 17 15 8 6 9 2 0 0 0 0 0 0 0 0 0 0 0 0
1 0 0 1 0 0 0 0 0 5 1 0 2 3 4 6 5 1 1 14 10 20 9 14 32 34 26 4 6 3 2 1 0 0 0 0 0 0 0 0 0 0 0 0
0 0 0 1 0 0 0 0 1 1 0 0 2 0 3 4 4 4 5 10 37 22 24 30 34 27 15 6 5 3 5 2 2 0 0 0 0 0 0 0 0 0 0 0
0 0 3 2 1 1 0 0 1 0 0 0 0 0 0 4 2 3 1 0 11 11 9 35 38 27 10 8 5 0 0 0 2 0 0 1 1 0 0 0 0 1 1 1
1 3 2 5 1 2 0 1 4 2 0 0 0 0 0 0 1 1 0 6 0 7 7 5 18 13 9 6 7 6 0 5 1 2 3 5 0 0 0 1 3 6 13 0
6 7 2 0 2 2 2 2 2 3 1 0 0 0 0 0 0 0 0 0 1 4 5 3 3 12 3 6 5 7 5 0 1 7 2 2 1 1 2 2 1 7 10 13
CIN
0 0 0 0 0 0 0 0 0 0 0 0 0 0 0 0 -6 0 0 0 0 0 -77 0 0 0 -56 -61 -34 0 0 -4 -19 -32 -32 0 0 0 0 0 0 0 0 0
0 0 0 0 0 0 0 0 0 0 0 0 0 0 0 -22 0 0 -27 -20 -17 -81 -2 0 -61 0 0 0 -39 0 0 0 -22 -39 -33 -1 -6 0 0 0 0 0 0 0
0 0 0 0 0 0 0 0 0 0 0 0 -13 -24 0 0 0 -23 -38 -28 0 0 0 0 0 0 0 0 0 -1 0 0 0 -10 -26 -10 -11 -18 0 0 0 0 0 0
0 0 0 0 0 0 0 0 0 0 -9 -41 -18 -34 -40 -61 -30 -12 -9 0 0 0 0 0 0 0 0 0 0 -5 0 0 -2 -16 -43 -23 -2 -25 -21 0 0 0 0 0
0 0 0 0 0 0 0 0 0 -18 -13 0 -35 -39 0 -16 -26 -33 -23 -2 -4 0 0 0 0 0 0 0 0 0 0 -1 -19 -23 0 -19 0 -38 -33 0 0 0 0 0
0 -2 0 0 0 0 0 0 0 0 0 -1 -23 -5 0 0 0 -92 -23 -30 0 0 0 0 0 0 0 0 0 0 -1 -13 -14 0 0 0 0 0 -42 -14 0 0 0 0
0 -3 -3 0 0 0 0 0 0 0 -2 -4 -9 -14 -20 -27 -26 -15 -26 0 0 0 0 0 0 0 0 0 -1 0 -1 -8 0 0 0 0 0 0 -39 -11 0 0 0 0
0 -2 0 0 0 0 0 0 -3 -19 -9 -10 -12 -29 -6 -5 -6 -7 -27 0 0 0 0 0 0 0 0 0 0 0 -2 -4 -5 0 0 0 0 0 -21 -10 -4 0 0 0
0 0 0 0 0 0 0 -13 -15 -31 -46 -14 -6 0 -1 -4 -10 -11 0 0 0 -1 -6 0 -3 -3 -6 0 0 -1 -1 -3 -8 -3 -7 0 0 0 0 -11 -5 -8 0 0
0 0 0 0 0 -2 -13 -33 0 0 -2 -2 0 -3 -3 -2 -1 -1 0 -3 -1 -1 -1 -1 -2 -3 -5 -1 -1 -2 0 -4 -6 -6 0 0 0 0 0 -7 -2 -3 0 0
0 0 0 0 0 0 -34 -37 -13 -3 -4 -6 -1 0 0 -1 -1 -1 0 0 -1 -1 -3 -2 -4 -1 -5 -1 0 -1 0 0 -6 0 0 -1 0 -11 -33 -17 -8 -1 0 0
0 0 0 0 0 0 0 0 0 -1 0 0 -1 0 -1 -1 -1 0 0 -1 -1 -1 -1 0 0 -4 -2 -2 -1 -1 -1 -4 0 -1 0 -1 0 -8 -8 -12 -12 -32 0 0
0 0 0 0 0 0 0 -1 -2 0 0 0 0 0 0 -1 0 -1 0 -1 0 -1 -1 0 -3 -4 -2 -2 -2 -4 -8 0 -1 0 0 0 0 -7 -3 -6 -11 -46 0 0
0 0 0 0 0 0 0 0 0 0 0 0 0 0 0 0 0 0 0 0 0 0 0 -1 -5 -3 -4 -8 -5 -1 0 0 -1 0 0 0 0 -4 -5 -4 -3 0 -58 0
0 0 0 0 0 0 0 0 0 0 0 0 -1 0 0 0 0 0 0 0 0 -1 0 -1 -4 -4 -4 -3 0 0 0 0 0 0 0 0 -1 -4 -3 0 0 0 0 0
0 0 0 0 0 0 -1 0 0 0 0 0 0 0 0 0 0 0 0 0 0 0 0 0 0 -2 -2 0 0 0 0 0 0 0 0 -3 -1 -1 -1 -1 0 0 0 0
0 0 0 0 0 0 0 0 -3 -1 0 0 0 0 0 0 0 0 0 0 0 0 0 0 0 0 0 0 0 0 0 0 0 0 -1 0 0 0 -1 0 0 -1 -1 -1
0 0 0 -1 -2 -1 -1 -1 -3 0 0 0 0 0 0 0 0 0 0 0 0 0 0 0 0 0 0 -1 0 0 0 0 0 0 0 0 0 -1 0 0 -1 0 -2 -1
0 0 0 0 0 0 0 -4 -2 0 0 0 0 0 0 0 0 0 0 0 0 0 0 0 0 0 0 0 0 0 0 0 0 0 0 0 -4 0 -1 -1 -1 0 -1 0
0 0 -1 0 0 0 0 -6 0 0 0 0 0 0 0 0 0 0 0 0 0 0 0 0 0 0 0 0 0 0 0 0 0 0 0 0 0 0 0 -1 0 0 0 0
0 -1 -3 -1 -2 0 0 -7 0 0 0 -1 0 0 0 0 0 0 0 0 0 0 0 0 0 0 0 0 0 0 0 0 0 0 0 0 0 0 0 0 0 0 0 0
0 -1 -2 -1 0 0 0 0 0 -1 -2 0 0 0 0 0 0 0 0 0 0 0 0 0 0 0 0 0 0 0 -1 -2 0 0 0 0 0 0 0 0 0 0 0 0
-2 0 0 -3 -3 -1 0 0 0 -6 -6 0 -5 -1 0 0 0 0 0 0 0 0 0 0 0 0 0 0 0 0 0 -1 0 0 0 0 0 0 0 0 0 0 -6 -5
0 0 -3 -1 -1 0 0 -4 -9 -7 -6 0 -5 0 -2 0 0 0 0 0 0 0 0 0 0 0 0 0 0 0 0 0 -1 -2 0 0 0 0 0 0 0 0 0 0
0 -1 -5 -2 -8 -4 -2 -1 -5 -5 0 0 0 0 0 -6 -1 -1 -1 -1 0 0 0 0 0 0 0 0 -1 -1 0 0 -7 -8 -2 -9 -6 -2 -1 0 0 -5 -11 -14
-1 -2 -10 -7 -7 -7 -7 -4 -3 -5 -1 0 0 0 0 0 -3 -5 -1 -1 0 0 0 0 0 0 0 0 0 -1 0 -1 -2 -4 -4 -3 -5 0 -1 -5 -9 -7 -3 -12
-4 -5 -4 -4 -5 -2 -4 -3 -3 -6 -5 0 0 0 0 0 0 0 -1 0 -1 -1 -1 -1 0 0 -1 0 -1 0 -1 0 -4 -1 -3 -4 -9 -5 -4 -2 -8 -9 -5 -1
Wind_Speed
11 15 16 18 19 18 17 18 19 24 25 24 18 19 15 14 13 14 18 21 18 12 15 15 13 10 12 14 13 13 16 13 8 6 7 13 14 17 16 14 12 13 15 15
12 17 16 18 18 19 19 20 21 20 23 19 14 16 16 13 14 15 18 17 20 18 19 18 15 12 13 16 14 15 16 16 13 7 6 7 11 15 14 19 11 10 15 15
5 8 17 15 4 6 13 16 14 17 18 15 14 16 17 18 18 18 14 20 16 18 18 16 17 16 16 17 16 13 16 17 17 10 7 7 6 9 12 19 10 9 14 15
8 12 4 4 14 14 17 18 17 18 16 12 13 15 17 19 16 16 15 16 18 17 16 18 18 15 16 16 15 12 15 17 19 7 8 11 8 8 10 14 15 9 13 14
3 5 18 19 5 14 18 15 11 9 11 17 19 16 18 16 13 17 20 18 16 16 20 19 19 16 15 18 14 13 18 19 11 12 15 13 12 9 8 11 17 10 11 14
5 6 7 4 18 11 7 16 6 16 21 20 18 15 16 20 20 20 21 17 16 18 19 18 18 15 17 15 15 16 18 11 13 14 17 17 14 10 9 11 14 10 10 14
11 11 12 10 7 13 9 13 22 22 16 18 15 12 20 20 23 20 19 19 19 19 17 19 16 15 16 18 15 13 16 13 13 14 18 19 16 11 9 10 10 14 10 13
6 8 14 2 17 14 18 19 20 14 13 17 19 20 20 19 19 20 21 23 24 19 18 19 16 15 16 16 16 16 14 14 14 16 16 16 16 9 9 8 10 16 11 11
6 7 14 18 18 17 18 13 14 17 19 18 20 21 21 20 22 22 23 22 21 19 18 22 15 13 14 17 16 17 13 15 14 17 17 18 16 9 8 11 10 13 10 11
11 7 12 17 21 15 15 14 16 18 20 19 22 23 26 23 23 23 22 21 20 19 20 20 15 15 12 16 16 17 17 15 15 16 18 18 12 8 10 10 11 12 10 11
13 17 19 13 14 13 17 17 19 19 20 23 25 26 25 23 23 22 22 20 19 19 17 21 17 16 14 16 16 18 16 13 13 12 14 10 6 6 9 9 8 11 10 12
11 11 10 13 13 15 17 18 21 24 23 21 22 25 25 22 20 22 22 21 19 21 21 18 19 16 17 17 19 15 15 10 10 10 10 7 7 1 8 12 14 12 18 14
9 10 9 13 14 18 19 21 19 22 23 25 23 22 24 23 22 26 23 23 22 21 19 20 15 19 19 16 14 15 15 8 9 11 8 6 9 4 6 1 12 21 22 22
13 8 10 12 17 16 18 21 21 20 19 19 22 22 24 23 25 23 23 22 22 20 19 17 18 17 15 14 14 15 11 16 8 7 4 6 4 6 5 8 10 10 21 20
5 7 11 15 16 17 16 19 21 20 20 21 21 22 24 25 25 25 23 22 22 19 18 16 16 16 13 13 12 17 7 6 4 5 4 7 4 6 8 10 10 12 12 16
6 10 11 13 15 16 18 19 19 19 21 22 23 26 25 25 25 24 22 19 16 13 14 13 14 14 12 11 12 7 4 7 3 6 4 6 11 10 11 10 10 9 9 10
9 11 11 12 13 16 16 16 16 18 19 21 23 24 24 24 23 21 20 16 13 13 13 13 12 12 12 11 10 0 3 3 7 8 8 8 10 10 9 9 8 7 7 8
5 6 7 12 14 14 15 16 15 19 17 20 21 22 22 21 21 21 15 14 10 10 10 10 11 12 8 5 8 3 5 4 5 9 10 11 11 10 11 11 10 9 8 9
4 6 9 12 12 12 13 13 14 16 18 18 19 21 21 20 20 20 16 15 14 9 8 7 13 11 8 10 8 7 6 6 7 9 9 13 10 8 8 9 10 8 6 5
4 6 9 12 11 12 13 12 16 14 16 16 17 19 20 20 19 19 15 12 15 13 14 10 9 10 10 12 13 6 8 7 7 7 7 7 7 8 8 10 9 8 6 4
4 6 9 8 10 10 11 11 13 14 16 14 15 17 18 18 18 17 15 10 14 14 14 17 11 9 9 11 12 9 9 8 7 8 8 8 9 8 7 7 7 7 7 6
4 6 7 8 9 9 11 11 12 12 11 13 13 15 16 16 16 16 14 13 10 20 10 9 9 17 12 16 8 9 9 9 8 7 7 7 6 6 7 7 7 7 6 5
4 7 7 5 6 8 10 10 10 11 9 10 9 12 12 10 9 11 11 14 11 17 10 9 18 20 19 9 8 9 10 10 9 8 8 8 8 8 8 7 7 6 6 6
6 7 4 6 6 6 7 9 10 8 7 6 6 7 8 9 9 8 10 14 18 15 10 11 14 18 16 8 8 7 7 7 6 7 7 10 6 5 6 5 5 5 5 7
6 7 4 5 4 4 5 6 8 7 7 5 6 5 7 4 5 7 7 7 16 12 8 15 17 16 7 6 6 6 5 4 4 5 5 5 4 4 4 4 4 4 4 4
5 4 3 5 2 3 4 4 5 6 5 3 4 4 5 4 4 7 7 11 8 11 7 8 6 5 5 6 6 5 5 4 4 4 4 3 4 4 4 3 3 3 3 4
4 5 3 2 2 4 4 4 5 5 6 3 5 4 4 4 5 5 9 7 7 7 5 5 6 8 6 6 5 4 3 4 7 3 3 4 4 4 3 3 2 3 3 3
Wind_Direction
285 300 302 293 289 282 274 276 269 289 278 282 292 316 320 320 342 342 334 317 313 326 318 320 314 314 317 313 308 308 304 299 286 283 311 310 308 309 306 277 270 188 174 177
288 280 275 288 286 284 275 274 272 287 294 305 310 307 315 343 334 328 316 329 323 327 321 318 314 317 313 304 305 305 300 302 293 262 268 305 301 310 307 292 268 195 174 176
261 319 311 286 280 342 311 303 313 310 313 322 339 349 336 330 324 312 327 306 315 318 309 311 314 314 308 305 297 291 299 300 300 288 272 284 274 296 304 295 260 232 177 177
288 309 253 246 325 329 324 316 310 307 323 349 324 313 312 309 303 303 313 316 314 306 309 308 305 306 307 298 303 296 300 300 290 307 312 307 277 259 286 288 274 257 182 171
271 279 284 275 277 333 307 307 308 311 321 313 310 315 301 305 313 315 311 308 300 313 307 305 304 305 313 301 296 308 295 291 311 315 306 301 284 232 245 269 282 254 181 161
266 281 270 281 325 327 338 295 341 331 317 316 322 305 298 311 305 300 296 292 309 303 302 300 301 303 297 305 303 292 299 314 307 310 310 300 283 266 221 247 266 257 175 159
249 254 263 270 7 337 303 294 318 307 301 312 300 288 299 301 298 293 288 309 305 302 297 299 302 300 303 298 297 306 297 303 303 303 300 291 283 255 212 228 251 263 172 159
254 262 268 16 328 321 298 308 304 325 324 306 297 295 297 298 298 303 305 304 300 295 297 297 296 295 293 300 303 300 295 299 294 295 295 286 280 237 210 200 236 256 164 153
217 240 290 310 300 304 300 319 326 318 312 301 300 299 302 301 296 293 292 294 294 286 298 293 294 288 297 298 303 292 301 300 294 294 299 291 287 230 209 195 211 240 167 156
301 257 290 299 293 297 317 318 321 311 301 310 303 301 297 296 298 292 292 290 287 299 295 293 297 302 294 304 304 306 299 302 292 297 295 292 281 200 187 190 201 224 166 153
266 281 283 288 313 344 332 320 310 304 304 301 300 300 301 302 304 304 302 301 301 297 298 293 303 300 310 308 314 298 298 297 288 290 292 306 286 168 180 183 212 207 163 150
271 304 309 321 333 331 314 315 311 308 311 314 310 308 309 304 303 302 297 298 296 295 289 290 293 295 307 301 294 294 300 284 281 289 290 295 302 131 125 157 235 207 146 146
306 319 334 321 317 313 300 309 326 326 317 312 312 307 306 302 302 300 300 294 292 291 293 292 293 300 300 292 294 300 292 277 282 282 281 295 275 168 161 186 222 138 134 134
285 359 328 312 307 328 332 324 320 316 314 316 314 313 308 304 306 304 299 296 293 289 287 290 287 288 287 285 288 304 268 279 284 269 263 273 241 140 154 148 137 114 116 123
354 318 296 318 328 328 328 327 328 322 320 318 313 310 316 313 305 300 295 292 292 290 283 279 283 284 285 285 292 294 289 286 257 266 253 242 162 119 124 115 113 108 106 105
315 316 323 331 324 328 329 322 319 320 319 316 319 321 315 310 307 305 302 296 290 289 289 284 283 282 286 291 292 282 323 332 256 252 227 118 118 119 120 108 103 103 110 120
326 321 331 324 325 320 317 318 317 313 319 322 321 318 317 317 314 315 314 312 299 295 295 292 294 297 291 282 288 147 84 55 38 69 91 106 122 121 116 105 98 104 113 131
313 334 334 317 316 317 317 316 318 322 322 323 321 324 325 326 324 324 329 327 309 300 299 309 304 294 313 287 136 103 106 64 76 85 83 86 91 101 108 114 124 133 140 146
349 326 313 311 314 312 311 320 321 319 328 330 329 332 330 330 331 332 338 333 326 308 312 355 44 50 50 53 121 102 94 90 69 83 85 87 85 87 110 121 117 113 111 101
310 307 308 309 316 319 323 324 327 326 328 337 334 336 337 338 340 340 344 3 15 26 50 54 48 51 61 67 72 81 101 90 90 90 88 88 94 95 91 89 109 124 136 127
281 301 302 309 310 320 325 323 325 328 332 332 339 339 340 341 346 348 1 6 21 34 40 44 46 45 52 57 52 58 62 69 84 89 89 94 97 95 95 95 89 89 89 82
282 291 297 306 315 318 326 321 332 322 328 331 340 341 344 347 350 357 12 16 15 33 36 40 49 60 56 55 50 48 50 51 51 59 67 69 73 74 75 85 88 88 91 92
272 284 293 292 301 307 319 331 312 315 322 325 335 342 346 343 350 357 360 10 23 31 33 43 50 51 50 40 43 46 45 46 47 50 50 55 59 63 66 69 75 77 72 71
273 281 273 288 291 302 318 313 308 313 304 322 325 337 340 347 353 1 351 356 23 24 32 40 46 51 51 40 40 51 55 51 57 64 65 66 67 66 69 67 77 81 76 83
270 273 270 289 282 293 298 308 305 307 314 330 328 336 334 342 355 342 349 358 10 22 23 31 41 45 47 49 39 34 40 39 51 69 74 66 62 68 77 86 89 86 99 106
256 257 251 264 242 286 299 307 302 308 314 319 323 323 329 330 342 1 353 359 7 17 16 7 22 56 42 37 55 37 30 37 53 77 85 86 81 68 61 66 65 67 99 118
242 251 257 282 283 295 287 301 301 295 314 333 320 317 333 335 342 358 1 355 359 1 9 22 14 26 31 31 21 23 34 62 46 50 82 92 99 99 113 111 92 101 104 120